Reno, NV

5:03 AM PDT on October 24, 2017 (GMT -0700)
Reno-Tahoe International

Weather History for KRNO - June, 2013

Change the Weather History Date:

Saturday, June 15, 2013

  Actual Average Record
Temperature  
Mean Temperature 69 °F 67 °F  
Max Temperature 87 °F 83 °F 101 °F (1940)
Min Temperature 50 °F 52 °F 30 °F (1945)
Degree Days  
Heating Degree Days 0 2  
Month to date heating degree days 2 42  
Since 1 June heating degree days 2 42  
Since 1 July heating degree days 4436 4910  
Cooling Degree Days 4 4  
Month to date cooling degree days 129 50  
Year to date cooling degree days 165 87  
Since 1 June cooling degree days 129 50  
Growing Degree Days 18 (Base 50)    
Moisture  
Dew Point 25 °F    
Average Humidity 26    
Maximum Humidity 44    
Minimum Humidity 8    
Precipitation  
Precipitation 0.00 in 0.02 in 0.65 in (1932)
Month to date precipitation 0.11 0.30  
Year to date precipitation 1.42 4.07  
Snow  
Snow 0.00 in 0.00 in T in (1921)
Month to date snowfall 0.0 0.0  
Since 1 June snowfall 0.0 0.0  
Since 1 July snowfall 9.4 21.8  
Snow Depth 0.00 in    
Sea Level Pressure  
Sea Level Pressure 29.86 in    
Wind  
Wind Speed 7 mph (WNW)    
Max Wind Speed 24 mph    
Max Gust Speed 31 mph    
Visibility 10 miles    
Events      
T = Trace of Precipitation, MM = Missing Value Source: NWS Daily Summary

Daily Weather History Graph

Daily Weather History Graph

Search for Another Location

Airport or City:

Trip Planner

Search our weather history database for the weather conditions in past years. The results will help you decide how hot, cold, wet, or windy it might be!

Date:

Astronomy

Jun. 15, 2013 Rise Set
Actual Time 5:31 AM PDT 8:28 PM PDT
Civil Twilight 4:58 AM PDT 9:00 PM PDT
Nautical Twilight 4:17 AM PDT 9:41 PM PDT
Astronomical Twilight 3:30 AM PDT 10:29 PM PDT
Moon 12:09 PM PDT (6/15) 12:07 AM PDT (6/15)
Length of Visible Light 16h 01m
Length of Day
14h 56m
Waxing Crescent, 40% of the Moon is Illuminated
Jun 15
Waxing Crescent
Jun 16
First Quarter
Jun 23
Full
Jun 29
Last Quarter
Jul 8
New

Hourly Weather History & Observations

Time (PDT) Temp. Dew Point Humidity Pressure Visibility Wind Dir Wind Speed Gust Speed Precip Events Conditions
12:55 AM 59.0 °F 28.0 °F 31% 29.90 in 10.0 mi South 3.5 mph - N/A   Clear
1:55 AM 57.9 °F 28.0 °F 32% 29.88 in 10.0 mi Calm Calm - N/A   Clear
2:55 AM 55.9 °F 26.1 °F 32% 29.88 in 10.0 mi WNW 4.6 mph - N/A   Clear
3:55 AM 54.0 °F 26.1 °F 34% 29.88 in 10.0 mi WNW 4.6 mph - N/A   Clear
4:55 AM 52.0 °F 30.0 °F 43% 29.89 in 10.0 mi Calm Calm - N/A   Clear
5:55 AM 53.1 °F 28.0 °F 38% 29.89 in 10.0 mi Calm Calm - N/A   Clear
6:55 AM 55.0 °F 30.0 °F 38% 29.90 in 10.0 mi Calm Calm - N/A   Clear
7:55 AM 59.0 °F 28.9 °F 32% 29.89 in 10.0 mi Calm Calm - N/A   Clear
8:55 AM 64.0 °F 26.1 °F 24% 29.88 in 10.0 mi Calm Calm - N/A   Clear
9:55 AM 69.1 °F 21.9 °F 17% 29.87 in 10.0 mi Calm Calm - N/A   Partly Cloudy
10:55 AM 73.9 °F 21.0 °F 14% 29.86 in 10.0 mi West 4.6 mph - N/A   Partly Cloudy
11:55 AM 78.1 °F 21.0 °F 12% 29.84 in 10.0 mi Calm Calm - N/A   Scattered Clouds
12:55 PM 81.0 °F 21.0 °F 11% 29.83 in 10.0 mi Variable 6.9 mph - N/A   Partly Cloudy
1:55 PM 82.9 °F 19.9 °F 10% 29.81 in 10.0 mi WSW 8.1 mph - N/A   Scattered Clouds
2:55 PM 84.9 °F 18.0 °F 8% 29.79 in 10.0 mi WNW 9.2 mph - N/A   Scattered Clouds
3:55 PM 84.9 °F 21.0 °F 10% 29.79 in 10.0 mi SSW 4.6 mph 17.3 mph N/A   Scattered Clouds
4:55 PM 84.9 °F 21.9 °F 10% 29.78 in 10.0 mi WNW 16.1 mph 24.2 mph N/A   Scattered Clouds
5:55 PM 82.9 °F 25.0 °F 12% 29.79 in 10.0 mi WNW 16.1 mph 25.3 mph N/A   Scattered Clouds
6:55 PM 80.1 °F 28.9 °F 15% 29.81 in 10.0 mi WNW 18.4 mph 25.3 mph N/A   Scattered Clouds
7:55 PM 75.9 °F 28.0 °F 17% 29.83 in 10.0 mi West 20.7 mph 31.1 mph N/A   Scattered Clouds
8:55 PM 72.0 °F 27.0 °F 19% 29.87 in 10.0 mi NNW 11.5 mph 18.4 mph N/A   Scattered Clouds
9:55 PM 70.0 °F 26.1 °F 19% 29.89 in 10.0 mi NW 10.4 mph - N/A   Partly Cloudy
10:55 PM 68.0 °F 27.0 °F 21% 29.90 in 10.0 mi WNW 15.0 mph 23.0 mph N/A   Partly Cloudy
11:55 PM 66.0 °F 27.0 °F 23% 29.91 in 10.0 mi West 13.8 mph - N/A   Scattered Clouds